Kenai, AK

2:32 PM AKDT on May 25, 2017 (GMT -0800)
Kenai Municipal

Weather History for PAEN - January, 2013

Change the Weather History Date:

Friday, January 4, 2013

  Actual Average Record
Temperature  
Mean Temperature 26 °F -  
Max Temperature 32 °F 17 °F 47 °F (1960)
Min Temperature 21 °F 0 °F -47 °F (1975)
Degree Days  
Heating Degree Days 38    
Moisture  
Dew Point 25 °F    
Average Humidity 94    
Maximum Humidity 100    
Minimum Humidity 82    
Precipitation  
Precipitation 0.00 in - - ()
Sea Level Pressure  
Sea Level Pressure 29.74 in    
Wind  
Wind Speed 4 mph (NE)    
Max Wind Speed 13 mph    
Max Gust Speed -    
Visibility 6 miles    
Events Fog , Snow    
Averages and records for this station are not official NWS values.
T = Trace of Precipitation, MM = Missing Value Source: NWS Daily Summary

Daily Weather History Graph

Daily Weather History Graph

Search for Another Location

Airport or City:

Trip Planner

Search our weather history database for the weather conditions in past years. The results will help you decide how hot, cold, wet, or windy it might be!

Date:

Astronomy

Jan. 04, 2013 Rise Set
Actual Time 10:10 AM AKST 4:10 PM AKST
Civil Twilight 9:12 AM AKST 5:08 PM AKST
Nautical Twilight 8:15 AM AKST 6:05 PM AKST
Astronomical Twilight 7:23 AM AKST 6:57 PM AKST
Moon 1:01 AM AKST (1/4) 11:45 AM AKST (1/4)
Length of Visible Light 7h 55m
Length of Day
6h 00m
Waning Gibbous, 53% of the Moon is Illuminated
Jan 4
Waning Gibbous
Jan 4
Last Quarter
Jan 11
New
Jan 18
First Quarter
Jan 26
Full

Hourly Weather History & Observations

Time (AKST) Temp. Windchill Dew Point Humidity Pressure Visibility Wind Dir Wind Speed Gust Speed Precip Events Conditions
12:53 AM 32.0 °F 26.4 °F 27.0 °F 82% 29.59 in 9.0 mi North 5.8 mph - 0.00 in Snow Light Snow
1:53 AM 30.9 °F 27.5 °F 27.0 °F 85% 29.60 in 10.0 mi ENE 3.5 mph - 0.00 in   Mostly Cloudy
3:53 AM 28.9 °F 25.2 °F 27.0 °F 92% 29.63 in 10.0 mi ENE 3.5 mph - N/A   Overcast
4:53 AM 30.0 °F - 27.0 °F 88% 29.66 in 10.0 mi Calm Calm - N/A   Overcast
5:08 AM 28.4 °F - 26.6 °F 93% 29.65 in 10.0 mi Calm Calm - N/A   Overcast
5:26 AM 28.4 °F 24.6 °F 26.6 °F 93% 29.65 in 9.0 mi SSW 3.5 mph - 0.00 in   Overcast
5:47 AM 30.2 °F - 28.4 °F 93% 29.67 in 2.5 mi Calm Calm - 0.00 in Snow Light Snow
5:53 AM 28.9 °F - 28.0 °F 96% 29.68 in 3.0 mi Calm Calm - 0.00 in Snow Light Snow
6:13 AM 28.4 °F - 28.4 °F 100% 29.68 in 9.0 mi Calm Calm - 0.00 in   Overcast
6:53 AM 28.9 °F - 28.0 °F 96% 29.69 in 9.0 mi Calm Calm - 0.00 in   Overcast
7:33 AM 28.4 °F 22.2 °F 26.6 °F 93% 29.69 in 10.0 mi NE 5.8 mph - 0.00 in   Overcast
7:53 AM 28.0 °F - 26.1 °F 92% 29.71 in 10.0 mi Calm Calm - 0.00 in   Mostly Cloudy
8:26 AM 28.4 °F - 26.6 °F 93% 29.72 in 1.8 mi Calm Calm - N/A   Overcast
8:36 AM 28.4 °F 24.6 °F 28.4 °F 100% 29.72 in 0.5 mi ESE 3.5 mph - N/A Fog Light Freezing Fog
8:53 AM 28.9 °F - 28.9 °F 100% 29.74 in 0.2 mi Calm Calm - N/A Fog Light Freezing Fog
9:35 AM 26.6 °F - 26.6 °F 100% 29.75 in 0.5 mi Calm Calm - N/A Fog Light Freezing Fog
9:45 AM 26.6 °F 22.6 °F 26.6 °F 100% 29.75 in 0.5 mi NE 3.5 mph - N/A Fog Light Freezing Fog
9:53 AM 26.1 °F 21.9 °F 26.1 °F 100% 29.76 in 1.0 mi NE 3.5 mph - N/A   Overcast
10:53 AM 21.9 °F - 19.9 °F 92% 29.79 in 7.0 mi Calm Calm - N/A   Scattered Clouds
11:15 AM 21.2 °F 16.4 °F 21.2 °F 100% 29.79 in 1.5 mi North 3.5 mph - N/A   Scattered Clouds
11:53 AM 21.9 °F - 21.0 °F 96% 29.81 in 7.0 mi Calm Calm - N/A   Scattered Clouds
12:53 PM 24.1 °F - 21.9 °F 91% 29.81 in 10.0 mi Calm Calm - N/A   Overcast
12:55 PM 24.8 °F 19.1 °F 21.2 °F 86% 29.80 in 10.0 mi NW 4.6 mph - N/A   Scattered Clouds
1:53 PM 28.0 °F 21.7 °F 27.0 °F 96% 29.82 in 10.0 mi NNE 5.8 mph - N/A   Scattered Clouds
2:45 PM 26.6 °F 18.2 °F 26.6 °F 100% 29.81 in 10.0 mi NNE 8.1 mph - N/A   Overcast
2:53 PM 27.0 °F 19.5 °F 26.1 °F 96% 29.82 in 0.8 mi NNE 6.9 mph - N/A   Overcast
2:58 PM 26.6 °F 19.1 °F 26.6 °F 100% 29.81 in 0.8 mi NNE 6.9 mph - N/A   Overcast
3:53 PM 25.0 °F 20.7 °F 25.0 °F 100% 29.82 in 0.8 mi NNE 3.5 mph - N/A   Mostly Cloudy
4:53 PM 24.1 °F 17.0 °F 23.0 °F 96% 29.82 in 0.8 mi NE 5.8 mph - N/A   Mostly Cloudy
5:18 PM 23.0 °F - 23.0 °F 100% 29.80 in 0.8 mi Calm Calm - N/A   Mist
5:53 PM 24.1 °F 16.0 °F 23.0 °F 96% 29.81 in 1.8 mi NE 6.9 mph - N/A   Mostly Cloudy
5:55 PM 24.8 °F 16.9 °F 23.0 °F 93% 29.79 in 2.0 mi NE 6.9 mph - N/A   Mostly Cloudy
6:03 PM 24.8 °F 16.9 °F 21.2 °F 86% 29.79 in 10.0 mi NE 6.9 mph - N/A   Scattered Clouds
6:53 PM 25.0 °F 16.3 °F 23.0 °F 92% 29.80 in 10.0 mi NNE 8.1 mph - N/A   Partly Cloudy
7:53 PM 24.1 °F 18.2 °F 21.9 °F 91% 29.78 in 10.0 mi NNE 4.6 mph - N/A   Clear
8:53 PM 23.0 °F 13.9 °F 21.0 °F 92% 29.77 in 10.0 mi NNE 8.1 mph - N/A   Clear
9:53 PM 26.1 °F 15.0 °F 24.1 °F 92% 29.76 in 10.0 mi NNE 12.7 mph - N/A   Overcast
10:53 PM 27.0 °F 16.1 °F 25.0 °F 92% 29.75 in 10.0 mi NNE 12.7 mph - N/A   Overcast
11:53 PM 27.0 °F 16.1 °F 25.0 °F 92% 29.73 in 10.0 mi NNE 12.7 mph - N/A   Overcast